Lid_Strength_Index
1 4 5 8 11 13 15 14 12 12 12 9 8 9 10 8 9 12 5 3 0 0 -0 -1 -1 -1 -1 -1 -2 -1 -2 -1 -2 -2 -2 -2 -2 -2 -2 -2 -2 -2 -1 -1 -2 -2 -2 -2 -2
3 5 7 11 14 16 16 13 13 12 8 8 8 8 8 10 6 5 4 1 -0 -0 -0 -0 -1 -1 -1 -1 -1 -2 -2 -2 -2 -2 -2 -2 -2 -2 -2 -2 -2 -2 -2 -2 -3 -2 -2 -2 -2
5 6 9 13 16 16 15 14 13 11 8 11 9 7 7 8 6 5 4 0 0 0 -0 -0 -1 -2 -1 -2 -2 -2 -2 -2 -2 -2 -2 -2 -2 -2 -2 -2 -3 -2 -2 -2 -3 -2 -2 -2 -2
6 7 11 14 15 15 14 13 13 10 11 9 8 9 7 5 5 4 2 0 0 0 -0 -0 -1 -1 -2 -2 -2 -2 -1 -1 -2 -2 -2 -2 -2 -2 -2 -2 -2 -2 -2 -2 -3 -2 -2 -2 -2
8 10 13 15 15 13 13 12 11 11 12 11 11 10 9 5 3 3 2 0 1 1 0 -0 -1 -1 -2 -2 -2 -2 -2 -2 -2 -2 -2 -2 -2 -2 -2 -2 -2 -2 -1 -1 -2 -2 -2 -2 -2
10 11 15 16 15 13 12 12 11 12 12 11 9 8 8 7 5 4 2 2 1 0 0 0 1 -0 -1 -1 -1 -1 -1 -2 -2 -2 -1 -2 -2 -2 -2 -2 -2 -2 -1 -1 -1 -1 -0 -0 1
11 13 15 16 14 13 12 11 13 12 11 11 8 10 9 7 6 6 5 4 3 1 1 0 0 0 1 -0 -0 -1 -1 -1 -2 -2 -2 -2 -2 -2 -2 -2 -2 -2 -2 -1 -0 0 0 0 1
12 12 16 15 14 14 11 11 12 12 12 10 10 11 9 7 6 8 8 8 7 5 3 2 0 -0 -0 0 2 1 -0 -1 -1 -1 -0 -0 -1 -1 -1 -1 -2 -2 -2 -1 -0 0 1 1 2
12 14 16 15 14 13 12 12 12 12 11 12 11 10 9 6 9 9 10 10 9 9 8 7 3 2 1 0 1 3 1 1 0 1 1 2 0 -0 0 -0 -1 -1 -1 -1 0 2 2 2 3
13 15 14 13 13 12 12 12 11 12 12 12 12 11 8 8 10 8 8 8 9 10 10 10 8 7 5 2 -0 0 0 0 0 0 1 0 0 0 -0 1 -0 -1 -0 0 1 2 4 6 8
14 14 13 12 11 11 11 12 11 12 13 11 11 10 8 9 10 8 8 8 9 11 10 9 9 7 7 5 1 -0 -0 0 1 -0 -0 -0 -0 -0 0 1 1 2 3 4 5 5 6 7 7
12 13 12 10 10 11 12 11 12 12 11 11 11 10 8 8 9 10 9 10 11 11 10 9 8 8 7 7 4 0 0 0 1 0 0 0 0 0 1 1 1 2 3 5 5 6 6 6 7
12 12 11 10 11 10 10 11 11 11 11 11 11 9 9 8 9 9 9 10 10 10 9 9 9 8 7 7 1 1 1 1 1 0 0 1 1 1 1 1 1 2 2 4 5 5 5 6 7
11 11 11 11 11 11 12 11 10 10 12 12 11 10 10 9 9 10 10 10 9 8 8 7 6 5 4 5 3 1 1 1 1 1 0 1 1 1 2 2 3 3 3 4 4 4 4 5 6
12 13 13 13 12 12 11 13 11 11 12 11 12 12 11 10 10 10 10 10 10 8 8 7 6 5 3 3 1 3 3 2 2 3 2 2 2 2 3 3 4 3 3 4 4 5 5 6 8
13 14 15 13 12 12 12 15 12 12 12 11 12 13 12 11 11 11 11 10 10 9 8 7 5 3 3 4 3 5 4 4 4 4 4 4 3 3 4 4 4 4 4 5 6 7 8 10 11
15 17 16 14 12 13 14 15 12 13 13 12 13 13 12 12 12 11 11 11 10 9 8 8 7 5 4 6 5 6 5 5 5 5 6 5 5 5 5 5 5 5 6 7 8 9 9 11 12
16 17 16 16 13 14 14 14 12 12 13 13 13 13 13 13 11 11 11 11 10 9 9 8 8 7 6 7 7 8 7 8 7 7 7 7 7 7 7 7 8 8 9 10 9 10 11 11 13
15 16 15 15 13 14 14 14 13 12 13 13 13 13 13 12 10 12 12 12 10 10 9 9 9 7 7 8 8 9 8 9 9 8 8 8 8 8 7 8 9 11 11 11 10 11 11 13 14
15 15 15 14 13 14 14 14 12 12 13 12 11 12 12 12 12 12 13 12 11 9 9 10 9 7 7 8 10 11 11 13 11 10 10 10 10 10 9 9 12 13 13 12 12 12 15 16 16
14 15 15 15 14 14 16 16 14 12 13 12 12 10 11 11 11 12 13 12 11 10 9 9 9 9 8 9 13 14 13 13 12 12 12 12 11 11 12 12 14 14 13 12 14 14 14 17 17
15 13 13 14 15 18 16 19 16 13 13 13 11 12 11 10 11 11 12 13 11 10 9 8 9 9 9 11 11 11 13 14 14 13 13 14 13 13 14 14 15 15 15 15 15 15 16 16 18
13 12 13 14 16 18 18 18 17 15 14 12 11 11 11 11 12 12 12 12 11 10 9 9 9 9 10 11 10 11 12 15 16 14 15 15 15 16 16 16 16 16 16 17 17 17 17 17 18
11 13 14 15 16 19 17 17 17 16 14 13 11 11 11 12 12 13 13 12 12 11 10 10 10 10 11 12 12 11 13 16 16 16 15 16 16 17 17 17 17 17 17 17 17 18 18 18 19
13 14 18 20 21 20 18 18 15 14 13 13 12 11 12 12 13 14 14 14 12 11 10 10 10 11 12 12 12 13 13 14 14 15 15 17 17 18 18 18 18 18 18 18 18 18 18 18 18
14 14 18 22 22 20 18 19 16 13 13 13 13 12 13 13 13 14 14 14 12 12 11 10 10 11 12 12 13 14 13 13 13 14 15 16 16 17 18 18 18 18 18 18 18 18 19 18 19
14 15 13 16 24 21 18 17 14 14 13 13 13 13 13 13 13 14 15 14 13 12 11 10 11 11 12 12 13 14 14 14 15 15 16 17 17 18 18 18 18 19 18 18 19 18 19 19 19
13 12 16 18 22 24 19 19 17 15 13 13 13 13 12 14 14 15 15 15 13 12 11 11 10 11 13 13 14 14 14 14 15 16 17 17 17 18 19 19 19 19 19 19 19 19 19 19 20
15 15 16 16 18 21 23 18 15 14 13 13 12 12 13 13 14 14 15 15 14 13 12 11 12 13 14 14 15 16 15 15 16 16 17 17 18 19 18 18 19 19 19 19 19 19 20 20 20
16 16 15 18 20 19 20 17 14 13 13 13 13 12 13 14 14 15 15 15 15 14 14 13 12 13 13 15 16 17 17 16 17 17 17 18 18 18 18 19 19 19 19 19 19 20 20 20 20